sat.trackr.live / text

‹ back to catalog

STARLINK-32597

NORAD 62304 · 2024-239D

PAYLOAD ACTIVE UNKNOWN

§ Identity

Operator
Country
US
Launch date
2024-12-13
Launch site
AFWTR
Launch vehicle
Mass (kg)
RCS (m²)

Purposes: comms

External: N2YO · Heavens-Above · Gunter

§ Orbital elements

Epoch: 2026-09-21T12:15:46.320192Z

Period
93.85 min
Inclination
53.1615°
Eccentricity
0.0001193
Mean motion
15.34395067 rev/d
Perigee alt
461.9 km
Apogee alt
463.5 km
Semi-major
6,840.9 km
B*
6.6601e-4
RAAN
348.8329°
Arg perigee
79.8927°
Mean anomaly
280.2211°
Rev number
9,958

§ Raw data

STARLINK-325971 62304U 24239D   26264.51095278  .00022189  00000+0  66601-3 0  99952 62304  53.1615 348.8329 0001193  79.8927 280.2211 15.34395067 99581

JSON: /api/v1/satellites/62304 · /tle

For live sub-satellite position, see the globe view (requires WebGL).

§ Visibility from observer

Set your observer location to see the next 7 days of passes ≥ 10°. The values pass through the URL so the page stays shareable.

No JS? Fill the form by hand. The geolocation button needs JavaScript.